Regional Weather Roundup
Issued by NWS

Home | Current Version | Previous Version | Graphics & Text | Print | Product List | Glossary On
Versions: 1 2 3 4 5 6 7 8 9 10 11 12 13 14 15 16 17 18 19 20 21 22 23 24 25 26 27 28 29 30 31 32 33 34 35 36 37 38 39 40 41 42 43 44 45 46 47 48 49 50
000
ASUS43 KLOT 290300
RWRIL

ILLINOIS REGIONAL WEATHER ROUNDUP
NATIONAL WEATHER SERVICE CHICAGO/ROMEOVILLE IL
1000 PM CDT FRI AUG 28 2015

NOTE: "FAIR" INDICATES FEW OR NO CLOUDS BELOW 12,000 FEET WITH NO
SIGNIFICANT WEATHER AND/OR OBSTRUCTIONS TO VISIBILITY.

* THESE STATIONS ARE NOT UNDER NWS QUALITY CONTROL. THEY ALSO MAY NOT
  REPORT WEATHER SUCH AS PRECIPITATION OR FOG.

ILZ001-002-007-009-015-016-024-290400-
NORTHWEST ILLINOIS

CITY           SKY/WX    TMP DP  RH WIND       PRES   REMARKS
MOLINE         CLOUDY    69  63  81 NE3       30.01R
STERLING*      CLOUDY   N/A N/A N/A E3        30.01R
SAVANNA*       RAIN      66  63  89 E6        30.04S
$$

ILZ003-004-008-010-011-017-018-290400-
NORTH CENTRAL ILLINOIS

CITY           SKY/WX    TMP DP  RH WIND       PRES   REMARKS
ROCKFORD       LGT RAIN  68  60  75 E13       30.07R
FREEPORT*      RAIN      63  62  95 E8        30.08R
$$

ILZ005-006-012>014-019>023-290400-
NORTHEAST ILLINOIS

CITY           SKY/WX    TMP DP  RH WIND       PRES   REMARKS
CHICAGO-OHARE  CLOUDY    70  63  78 E9        30.07F
CHICAGO-MIDWAY CLOUDY    72  63  73 E7        30.08R
AURORA         CLOUDY    70  62  76 E8        30.06S
LANSING*       CLOUDY    68  61  77 SE5       30.09R
WAUKEGAN       CLOUDY    64  63  96 NE6       30.08S FOG
DUPAGE AIRPORT CLOUDY    69  60  73 E8        30.06S
WHEELING       CLOUDY    69  62  78 E6        30.09S
ROMEOVILLE*    CLOUDY    68  60  75 SE6       30.07S
NORTHERLY ISL    N/A     67  64  90 E1          N/A
$$

LMZ740>746-290400-
SOUTHERN LAKE MICHIGAN

STATION/POSITION SKY/WX   TEMP    WIND        PRES    VSBY  WAVE
                          AIR SEA DIR/SP/G                  HT/PER
                          (F)     (DEG/KT/KT) (MB)    (MI)  (FT/S)
SOUTHERN BUOY              68 69   70/  8/  8 1019.2S
WILMETTE HARBOR            64 58  230/  4/  4   N/A           0
HARRISON CRIB              70     100/ 13/ 14   N/A
BURNHAM HARBOR             67      80/  4/  4   N/A
BURNS HARBOR               74     160/  5/  9 1019.3R
MICHIGAN CITY              70     110/  3/  3   N/A
MICHIGAN CITY 6N           71 71  120/  4/  6   N/A           0
ST. JOSEPH                 71 71  140/  8/ 10   N/A           0
$$

ILZ025>027-034>036-040-047-049-050-058-095>099-290400-
WEST-CENTRAL ILLINOIS

CITY           SKY/WX    TMP DP  RH WIND       PRES   REMARKS
QUINCY         CLOUDY    71  63  75 S6        29.99R
$$

ILZ028>032-037-038-041>044-048-051>054-059>061-290400-
CENTRAL ILLINOIS

CITY           SKY/WX    TMP DP  RH WIND       PRES   REMARKS
DECATUR        MOCLDY    70  57  63 SE6       30.05S
PEORIA         MOCLDY    72  59  63 SE8       30.01R
SPRINGFIELD    CLOUDY    73  60  63 SE9       30.01F
TAYLORVILLE    NOT AVBL
$$

ILZ033-039-045-046-055>057-062-063-290400-
EAST-CENTRAL ILLINOIS

CITY           SKY/WX    TMP DP  RH WIND       PRES   REMARKS
CHAMPAIGN      PTCLDY    65  60  84 SE6       30.06F
MATTOON        CLOUDY    67  58  72 SE5       30.05F HAZE
$$

ILZ079-100>102-290400-
SOUTHWEST ILLINOIS

CITY           SKY/WX    TMP DP  RH WIND       PRES   REMARKS
ALTON          CLOUDY    68  63  83 SE5       30.03
BELLEVILLE     CLOUDY    70  64  83 CALM      30.02R
CAHOKIA*       CLOUDY    71  63  75 SE6       30.01S
SPARTA*        CLOUDY    69  63  80 CALM      30.04S
$$

ILZ064>066-069>071-074>076-080>082-084>086-088>090-092>094-290400-
SOUTH-CENTRAL ILLINOIS

CITY           SKY/WX    TMP DP  RH WIND       PRES   REMARKS
CARBONDALE     MOCLDY    69  64  84 SE5       30.05R
MARION         PTCLDY    72  64  78 SE3       30.06R
MT. VERNON     MOCLDY    64  57  77 CALM      30.06S
SALEM*         MOCLDY    72  61  68 SE3       30.05S
$$

ILZ067-068-072-073-078-083-087-091-290400-
SOUTHEAST ILLINOIS

CITY           SKY/WX    TMP DP  RH WIND       PRES   REMARKS
LAWRENCEVILLE  MOCLDY    68  61  78 E6        30.08R
ROBINSON*      PTCLDY    60  58  92 CALM      30.08S
$$

ABBREVIATIONS USED IN REMARKS
   TC - TEMPERATURE IN CELSIUS
  WCI - WIND CHILL INDEX
   HX - HEAT INDEX
  VSB - VISIBILITY
$$




USA.gov is the U.S. government's official web portal to all federal, state and local government web resources and services.